| time (UTC) | temp C | wind direction | speed KPH | gust KPH | rain 1hr cm | rain 24hr cm | rain mn cm | humidity % | barometer mb |
| 20260506111548 | 23 | 144 | 3.2 | 8.0 | 0.00 | 0.00 | 0.00 | 92 | 1007.8 |
| 20260506110054 | 23 | 147 | 4.8 | 12.9 | 0.00 | 0.00 | 0.00 | 92 | 1007.7 |
| 20260506104544 | 23 | 140 | 4.8 | 12.9 | 0.00 | 0.00 | 0.00 | 92 | 1007.6 |
| 20260506103042 | 23 | 167 | 4.8 | 12.9 | 0.00 | 0.00 | 0.00 | 91 | 1007.4 |
| 20260506101543 | 23 | 153 | 4.8 | 14.5 | 0.00 | 0.00 | 0.00 | 91 | 1007.5 |
| 20260506100041 | 24 | 150 | 6.4 | 16.1 | 0.00 | 0.00 | 0.00 | 91 | 1007.5 |
| 20260506094549 | 24 | 148 | 8.0 | 14.5 | 0.00 | 0.00 | 0.00 | 91 | 1007.3 |
| 20260506093037 | 24 | 176 | 6.4 | 16.1 | 0.00 | 0.00 | 0.00 | 91 | 1007.3 |
| 20260506091536 | 24 | 162 | 9.7 | 19.3 | 0.00 | 0.00 | 0.00 | 91 | 1007.3 |
| 20260506090034 | 24 | 167 | 8.0 | 16.1 | 0.00 | 0.00 | 0.00 | 90 | 1007.6 |
| 20260506084534 | 24 | 155 | 8.0 | 14.5 | 0.00 | 0.00 | 0.00 | 90 | 1007.7 |
| 20260506083033 | 24 | 173 | 9.7 | 17.7 | 0.00 | 0.00 | 0.00 | 89 | 1007.5 |
| 20260506081532 | 24 | 188 | 6.4 | 17.7 | 0.00 | 0.00 | 0.00 | 89 | 1007.5 |
| 20260506073028 | 25 | 150 | 9.7 | 16.1 | 0.00 | 0.00 | 0.00 | 88 | 1007.9 |
| 20260506071531 | 25 | 162 | 6.4 | 17.7 | 0.00 | 0.00 | 0.00 | 87 | 1007.9 |
| 20260506061531 | 25 | 146 | 16.1 | 22.5 | 0.00 | 0.00 | 0.00 | 88 | 1008.1 |
| 20260506044513 | 25 | 140 | 17.7 | 25.7 | 0.00 | 0.00 | 0.00 | 88 | 1008.1 |
| 20260506043013 | 25 | 123 | 11.3 | 20.9 | 0.00 | 0.00 | 0.00 | 88 | 1008.0 |
| 20260506041517 | 25 | 145 | 14.5 | 24.1 | 0.00 | 0.00 | 0.00 | 88 | 1007.9 |
| 20260506040033 | 25 | 152 | 19.3 | 25.7 | 0.00 | 0.00 | 0.00 | 87 | 1007.5 |
| 20260506034511 | 25 | 148 | 12.9 | 25.7 | 0.00 | 0.00 | 0.00 | 87 | 1007.5 |
| 20260506033011 | 25 | 128 | 16.1 | 22.5 | 0.00 | 0.00 | 0.00 | 87 | 1007.5 |
| 20260506031524 | 25 | 120 | 12.9 | 22.5 | 0.00 | 0.00 | 0.00 | 86 | 1007.4 |
| 20260506030009 | 26 | 155 | 12.9 | 22.5 | 0.00 | 0.00 | 0.00 | 85 | 1007.1 |
| 20260506024516 | 26 | 143 | 19.3 | 25.7 | 0.00 | 0.00 | 0.00 | 84 | 1007.0 |
| 20260506023010 | 26 | 154 | 16.1 | 24.1 | 0.00 | 0.00 | 0.00 | 84 | 1006.8 |
| 20260506021509 | 26 | 132 | 17.7 | 25.7 | 0.00 | 0.00 | 0.00 | 83 | 1006.3 |
| 20260506020006 | 27 | 144 | 19.3 | 25.7 | 0.00 | 0.00 | 0.00 | 82 | 1006.2 |
| 20260506014510 | 27 | 360 | 16.1 | 22.5 | 0.00 | 0.00 | 0.00 | 81 | 1006.2 |
| 20260506013004 | 27 | 140 | 16.1 | 24.1 | 0.00 | 0.00 | 0.00 | 81 | 1006.0 |
| 20260506011504 | 27 | 134 | 14.5 | 20.9 | 0.00 | 0.00 | 0.00 | 80 | 1005.7 |
| 20260506010008 | 28 | 123 | 14.5 | 20.9 | 0.00 | 0.00 | 0.00 | 79 | 1005.4 |
| 20260506004506 | 28 | 137 | 9.7 | 19.3 | 0.00 | 0.00 | 0.00 | 77 | 1005.2 |
| 20260506003000 | 28 | 130 | 12.9 | 22.5 | 0.00 | 0.00 | 0.00 | 76 | 1005.1 |
| 20260506001600 | 29 | 127 | 14.5 | 17.7 | 0.00 | 0.00 | 0.00 | 75 | 1005.0 |
| 20260506001501 | 29 | 132 | 12.9 | 17.7 | 0.00 | 0.00 | 0.00 | 75 | 1005.1 |
| 20260505234606 | 29 | 136 | 11.3 | 22.5 | 0.00 | 0.00 | 0.00 | 74 | 1004.8 |
| 20260505233110 | 29 | 122 | 9.7 | 17.7 | 0.00 | 0.00 | 0.00 | 74 | 1004.7 |
| 20260505231605 | 30 | 140 | 11.3 | 20.9 | 0.00 | 0.00 | 0.00 | 72 | 1004.8 |
| 20260505230055 | 30 | 130 | 14.5 | 24.1 | 0.00 | 0.00 | 0.00 | 72 | 1004.6 |
| 20260505224554 | 30 | 167 | 11.3 | 19.3 | 0.00 | 0.00 | 0.00 | 72 | 1004.9 |
| 20260505223055 | 30 | 129 | 14.5 | 22.5 | 0.00 | 0.00 | 0.00 | 71 | 1004.9 |
| 20260505221552 | 30 | 157 | 8.0 | 20.9 | 0.00 | 0.00 | 0.00 | 70 | 1004.9 |
| 20260505220050 | 30 | 113 | 12.9 | 22.5 | 0.00 | 0.00 | 0.00 | 70 | 1005.1 |
| 20260505214552 | 30 | 175 | 9.7 | 20.9 | 0.00 | 0.00 | 0.00 | 72 | 1005.3 |
| 20260505213044 | 30 | 147 | 12.9 | 19.3 | 0.00 | 0.00 | 0.00 | 71 | 1005.6 |
| 20260505211542 | 30 | 148 | 6.4 | 19.3 | 0.00 | 0.00 | 0.00 | 71 | 1005.9 |
| 20260505210041 | 30 | 171 | 8.0 | 19.3 | 0.00 | 0.00 | 0.00 | 72 | 1005.9 |
| 20260505204537 | 30 | 161 | 12.9 | 20.9 | 0.00 | 0.00 | 0.00 | 72 | 1006.3 |
| 20260505203033 | 30 | 165 | 6.4 | 22.5 | 0.00 | 0.00 | 0.00 | 72 | 1006.4 |
| 20260505201531 | 29 | 126 | 9.7 | 19.3 | 0.00 | 0.00 | 0.00 | 72 | 1006.7 |
| 20260505200038 | 29 | 123 | 8.0 | 22.5 | 0.00 | 0.00 | 0.00 | 73 | 1006.9 |
| 20260505194525 | 29 | 161 | 6.4 | 17.7 | 0.00 | 0.00 | 0.00 | 75 | 1007.0 |
| 20260505193022 | 28 | 149 | 8.0 | 16.1 | 0.00 | 0.00 | 0.00 | 74 | 1007.3 |
| 20260505191518 | 28 | 157 | 4.8 | 12.9 | 0.00 | 0.00 | 0.00 | 76 | 1007.7 |
| 20260505190024 | 28 | 190 | 9.7 | 14.5 | 0.00 | 0.00 | 0.00 | 75 | 1007.7 |
| 20260505184516 | 28 | 153 | 9.7 | 19.3 | 0.00 | 0.00 | 0.00 | 76 | 1007.9 |
| 20260505183014 | 27 | 182 | 9.7 | 16.1 | 0.00 | 0.00 | 0.00 | 77 | 1008.2 |
| 20260505181512 | 27 | 167 | 9.7 | 17.7 | 0.00 | 0.00 | 0.00 | 78 | 1008.2 |
| 20260505180010 | 26 | 176 | 8.0 | 14.5 | 0.00 | 0.00 | 0.00 | 80 | 1008.3 |
| 20260505174507 | 26 | 184 | 9.7 | 19.3 | 0.00 | 0.00 | 0.00 | 81 | 1008.5 |
| 20260505173003 | 26 | 163 | 4.8 | 14.5 | 0.00 | 0.00 | 0.00 | 82 | 1008.5 |
| 20260505171502 | 25 | 184 | 11.3 | 19.3 | 0.00 | 0.00 | 0.00 | 83 | 1008.6 |
| 20260505170059 | 25 | 200 | 4.8 | 14.5 | 0.00 | 0.00 | 0.00 | 85 | 1008.8 |
| 20260505164617 | 25 | 208 | 8.0 | 17.7 | 0.00 | 0.00 | 0.00 | 85 | 1008.7 |
| 20260505163102 | 25 | 205 | 11.3 | 20.9 | 0.00 | 0.00 | 0.00 | 85 | 1008.8 |
| 20260505161605 | 24 | 203 | 9.7 | 19.3 | 0.00 | 0.00 | 0.00 | 87 | 1008.8 |
| 20260505153045 | 23 | 240 | 11.3 | 20.9 | 0.00 | 0.00 | 0.00 | 89 | 1008.8 |
| 20260505151546 | 23 | 199 | 11.3 | 22.5 | 0.00 | 0.00 | 0.00 | 89 | 1008.6 |
| 20260505124513 | 21 | 209 | 12.9 | 24.1 | 0.00 | 0.00 | 0.00 | 92 | 1008.2 |
| 20260505123008 | 21 | 209 | 12.9 | 24.1 | 0.00 | 0.00 | 0.00 | 92 | 1008.1 |
| 20260505121508 | 21 | 208 | 14.5 | 22.5 | 0.00 | 0.00 | 0.00 | 92 | 1008.0 |
| 20260505120010 | 21 | 194 | 11.3 | 22.5 | 0.00 | 0.00 | 0.00 | 92 | 1007.7 |
| 20260505114506 | 21 | 209 | 9.7 | 17.7 | 0.00 | 0.00 | 0.00 | 92 | 1007.6 |
| 20260505113007 | 21 | 190 | 14.5 | 24.1 | 0.00 | 0.00 | 0.00 | 92 | 1007.6 |